Weather History for Winona, MN

Change the Weather History Date:

Saturday, June 22, 2013

  Actual Average Record
Temperature  
Mean Temperature - -  
Max Temperature - 80 °F 89 °F (1997)
Min Temperature - 58 °F 40 °F (1992)
Moisture  
Dew Point -    
Average Humidity    
Maximum Humidity    
Minimum Humidity    
Precipitation  
Precipitation 2.37 in - - ()
Sea Level Pressure  
Sea Level Pressure 29.92 in    
Wind  
Wind Speed 6 mph (SE)    
Max Wind Speed 15 mph    
Max Gust Speed 22 mph    
Visibility 9 miles    
Events Rain , Thunderstorm    
Averages and records for this station are not official NWS values.
T = Trace of Precipitation, MM = Missing Value Source: NWS Daily Summary

Daily Weather History Graph

Daily Weather History Graph

Search for Another Location

Airport:

Trip Planner

Search our weather history database for the weather conditions in past years. The results will help you decide how hot, cold, wet, or windy it might be!

Date:

Astronomy

Jun. 22, 2013 Rise Set
Actual Time 5:24 AM CDT 8:53 PM CDT
Civil Twilight 4:47 AM CDT 9:30 PM CDT
Nautical Twilight 3:59 AM CDT 10:18 PM CDT
Astronomical Twilight 2:58 AM CDT 11:19 PM CDT
Moon 8:06 PM CDT (6/22) 4:39 AM CDT (6/22)
Length of Visible Light 16h 42m
Length of Day
15h 29m
Waxing Gibbous, 99% of the Moon is Illuminated
Jun 22
Waxing Gibbous
Jun 23
Full
Jun 29
Last Quarter
Jul 8
New
Jul 15
First Quarter

Hourly Weather History & Observations

Time (CDT) Temp. Dew Point Humidity Pressure Visibility Wind Dir Wind Speed Gust Speed Precip Events Conditions
12:15 AM - - N/A% 29.94 in 10.0 mi SE 5.8 mph - N/A   Clear
12:35 AM - - N/A% 29.94 in 10.0 mi SSE 5.8 mph - N/A   Clear
12:55 AM - - N/A% 29.91 in 10.0 mi ESE 5.8 mph - N/A   Clear
1:15 AM - - N/A% 29.87 in 10.0 mi ESE 3.5 mph - N/A   Clear
1:35 AM - - N/A% 29.89 in 10.0 mi Calm Calm - N/A   Clear
1:55 AM - - N/A% 29.91 in 10.0 mi Calm Calm - N/A   Clear
2:15 AM - - N/A% 29.91 in 10.0 mi East 6.9 mph - N/A Thunderstorm Scattered Clouds
2:35 AM - - N/A% 29.92 in 10.0 mi Calm Calm - N/A   Scattered Clouds
2:55 AM - - N/A% 29.92 in 3.0 mi Calm Calm - 0.02 in Rain , Thunderstorm Rain
3:15 AM - - N/A% 29.91 in 10.0 mi NNE 11.5 mph - 0.01 in Rain Rain
3:35 AM - - N/A% 29.93 in 10.0 mi North 5.8 mph - 0.03 in Rain , Thunderstorm Light Thunderstorms and Rain
3:54 AM - - N/A% 30.02 in 7.0 mi West 11.5 mph 19.6 mph 0.09 in Rain , Thunderstorm Heavy Thunderstorms and Rain
4:15 AM - - N/A% 30.01 in 2.5 mi NNE 6.9 mph - 0.36 in Rain , Thunderstorm Heavy Thunderstorms and Rain
4:35 AM - - N/A% 29.96 in 7.0 mi East 9.2 mph - 0.43 in Rain , Thunderstorm Light Thunderstorms and Rain
4:55 AM - - N/A% 29.96 in 10.0 mi ESE 12.7 mph 17.3 mph 0.44 in Rain , Thunderstorm Light Thunderstorms and Rain
5:15 AM - - N/A% 29.95 in 10.0 mi ESE 10.4 mph 16.1 mph 0.01 in Thunderstorm Unknown
5:35 AM - - N/A% 29.97 in 10.0 mi SE 8.1 mph - 0.01 in Thunderstorm Overcast
5:55 AM - - N/A% 29.95 in 10.0 mi East 5.8 mph - 0.01 in   Overcast
6:15 AM - - N/A% 29.95 in 10.0 mi East 3.5 mph - N/A   Mostly Cloudy
6:35 AM - - N/A% 29.99 in 10.0 mi WNW 4.6 mph - N/A   Overcast
6:55 AM - - N/A% 30.07 in 7.0 mi WNW 11.5 mph 21.9 mph 0.04 in Rain Heavy Rain
7:15 AM - - N/A% 29.96 in 7.0 mi ENE 9.2 mph - 0.03 in Rain Light Rain
7:34 AM - - N/A% 29.87 in 10.0 mi SE 12.7 mph 17.3 mph 0.04 in Rain Light Rain
7:55 AM - - N/A% 29.97 in 10.0 mi SSE 9.2 mph 19.6 mph 0.04 in   Mostly Cloudy
8:15 AM - - N/A% 29.99 in 10.0 mi SSE 8.1 mph - N/A   Scattered Clouds
8:35 AM - - N/A% 29.97 in 10.0 mi SSE 11.5 mph - N/A   Clear
8:55 AM - - N/A% 29.96 in 10.0 mi SE 8.1 mph - N/A   Clear
9:14 AM - - N/A% 29.96 in 10.0 mi SSE 4.6 mph - N/A   Clear
9:35 AM - - N/A% 29.96 in 10.0 mi SSE 5.8 mph - N/A   Scattered Clouds
9:55 AM - - N/A% 29.95 in 10.0 mi SE 6.9 mph - N/A   Scattered Clouds
10:15 AM - - N/A% 29.95 in 10.0 mi SSE 3.5 mph - N/A   Clear
10:35 AM - - N/A% 29.96 in 10.0 mi SSE 5.8 mph - N/A   Clear
10:55 AM - - N/A% 29.95 in 10.0 mi SSE 5.8 mph - N/A   Clear
11:15 AM - - N/A% 29.95 in 10.0 mi South 8.1 mph - N/A   Clear
11:35 AM - - N/A% 29.94 in 10.0 mi SSE 12.7 mph 18.4 mph N/A   Clear
11:55 AM - - N/A% 29.94 in 10.0 mi South 6.9 mph - N/A   Clear
12:15 PM - - N/A% 29.94 in 10.0 mi SSW 9.2 mph 18.4 mph N/A   Clear
12:35 PM - - N/A% 29.92 in 10.0 mi South 5.8 mph - N/A   Mostly Cloudy
12:55 PM - - N/A% 29.92 in 10.0 mi South 5.8 mph - N/A   Overcast
1:15 PM - - N/A% 29.90 in 10.0 mi South 4.6 mph 9.2 mph N/A   Mostly Cloudy
1:35 PM - - N/A% 29.89 in 10.0 mi South 6.9 mph - N/A   Scattered Clouds
1:55 PM - - N/A% 29.91 in 10.0 mi South 3.5 mph - N/A   Scattered Clouds
2:15 PM - - N/A% 29.91 in 10.0 mi South 5.8 mph - N/A   Overcast
2:35 PM - - N/A% 29.90 in 10.0 mi South 4.6 mph - N/A   Overcast
2:55 PM - - N/A% 29.91 in 10.0 mi SW 3.5 mph - N/A   Overcast
3:15 PM - - N/A% 29.91 in 10.0 mi SSW 3.5 mph - N/A   Overcast
3:35 PM - - N/A% 29.92 in 10.0 mi SW 5.8 mph - N/A   Overcast
3:55 PM - - N/A% 29.92 in 10.0 mi SSE 3.5 mph - N/A   Overcast
4:15 PM - - N/A% 29.91 in 10.0 mi Calm Calm - N/A   Overcast
4:35 PM - - N/A% 29.90 in 10.0 mi SE 6.9 mph - N/A   Overcast
4:55 PM - - N/A% 29.89 in 10.0 mi SSE 6.9 mph - N/A   Overcast
5:15 PM - - N/A% 29.88 in 10.0 mi SSE 4.6 mph - N/A   Scattered Clouds
5:35 PM - - N/A% 29.88 in 7.0 mi SE 6.9 mph - N/A   Scattered Clouds
5:55 PM - - N/A% 29.86 in 10.0 mi SE 10.4 mph 16.1 mph N/A Rain , Thunderstorm Light Thunderstorms and Rain
6:15 PM - - N/A% 29.85 in 7.0 mi SE 3.5 mph - 0.03 in Thunderstorm Thunderstorm
6:35 PM - - N/A% 29.86 in 10.0 mi ESE 8.1 mph - 0.03 in Thunderstorm Mostly Cloudy
6:55 PM - - N/A% 29.85 in 10.0 mi ESE 10.4 mph - 0.03 in Thunderstorm Mostly Cloudy
7:15 PM - - N/A% 29.87 in 10.0 mi NNE 15.0 mph 21.9 mph N/A Thunderstorm Thunderstorm
7:35 PM - - N/A% 29.91 in 2.5 mi East 9.2 mph - 0.42 in Rain , Thunderstorm Heavy Thunderstorms and Rain
7:55 PM - - N/A% 29.94 in 2.0 mi WNW 5.8 mph 16.1 mph 0.90 in Rain , Thunderstorm Heavy Thunderstorms and Rain
8:15 PM - - N/A% 29.89 in 2.5 mi East 6.9 mph - 0.54 in Rain , Thunderstorm Heavy Thunderstorms and Rain
8:35 PM - - N/A% 29.86 in 2.5 mi East 5.8 mph - 0.75 in Rain , Thunderstorm Thunderstorms and Rain
8:55 PM - - N/A% 29.87 in 5.0 mi SE 3.5 mph - 0.78 in Rain , Thunderstorm Light Thunderstorms and Rain
9:15 PM - - N/A% 29.85 in 7.0 mi SSE 5.8 mph - 0.01 in Rain , Thunderstorm Light Thunderstorms and Rain
9:35 PM - - N/A% 29.87 in 7.0 mi ESE 8.1 mph - 0.01 in Rain , Thunderstorm Light Thunderstorms and Rain
9:55 PM - - N/A% 29.90 in 7.0 mi Calm Calm - 0.01 in Thunderstorm Scattered Clouds
10:15 PM - - N/A% 29.90 in 10.0 mi SE 5.8 mph - N/A   Light Drizzle
10:35 PM - - N/A% 29.90 in 10.0 mi Calm Calm - N/A Rain Light Rain
10:55 PM - - N/A% 29.85 in 10.0 mi SE 11.5 mph - 0.01 in Rain Light Rain
11:15 PM - - N/A% 29.90 in 10.0 mi SE 10.4 mph - N/A Rain Light Rain
11:35 PM - - N/A% 29.92 in 7.0 mi SE 8.1 mph - N/A Rain , Thunderstorm Light Thunderstorms and Rain
11:55 PM - - N/A% 29.95 in 7.0 mi SSE 6.9 mph - N/A Rain , Thunderstorm Thunderstorms and Rain